Dunkirk, NY

5:20 PM EST on December 08, 2016 (GMT -0500)
Chautauqua County-Dunkirk

Weather History for KDKK - February, 2012

Change the Weather History Date:

Tuesday, February 14, 2012

  Actual Average Record
Temperature  
Mean Temperature 34 °F -  
Max Temperature 37 °F 32 °F 63 °F (1938)
Min Temperature 30 °F 18 °F -11 °F (1979)
Degree Days  
Heating Degree Days 32    
Moisture  
Dew Point 27 °F    
Average Humidity 78    
Maximum Humidity 96    
Minimum Humidity 44    
Precipitation  
Precipitation 0.00 in - - ()
Sea Level Pressure  
Sea Level Pressure 29.96 in    
Wind  
Wind Speed 6 mph (SSW)    
Max Wind Speed 10 mph    
Max Gust Speed -    
Visibility 6 miles    
Events Snow    
Averages and records for this station are not official NWS values.
T = Trace of Precipitation, MM = Missing Value Source: NWS Daily Summary

Daily Weather History Graph

Daily Weather History Graph

Search for Another Location

Airport or City:

Trip Planner

Search our weather history database for the weather conditions in past years. The results will help you decide how hot, cold, wet, or windy it might be!

Date:

Astronomy

Feb. 14, 2012 Rise Set
Actual Time 7:15 AM EST 5:47 PM EST
Civil Twilight 6:46 AM EST 6:16 PM EST
Nautical Twilight 6:13 AM EST 6:49 PM EST
Astronomical Twilight 5:41 AM EST 7:21 PM EST
Moon 1:01 AM EST (2/14) 10:48 AM EST (2/14)
Length of Visible Light 11h 29m
Length of Day
10h 31m
Waning Gibbous, 50% of the Moon is Illuminated
Feb 14
Waning Gibbous
Feb 14
Last Quarter
Feb 21
New
Feb 29
First Quarter
Mar 8
Full

Hourly Weather History & Observations

Time (EST) Temp. Windchill Dew Point Humidity Pressure Visibility Wind Dir Wind Speed Gust Speed Precip Events Conditions
12:53 AM 32.0 °F 24.2 °F 12.0 °F 44% 30.02 in 10.0 mi SW 9.2 mph - N/A   Overcast
1:53 AM 30.9 °F 22.8 °F 12.9 °F 47% 30.02 in 10.0 mi SSW 9.2 mph - N/A   Overcast
2:53 AM 30.9 °F 24.3 °F 14.0 °F 50% 30.01 in 10.0 mi SSW 6.9 mph - N/A   Overcast
4:53 AM 30.9 °F 22.8 °F 15.1 °F 52% 29.99 in 10.0 mi SSW 9.2 mph - N/A   Overcast
5:53 AM 30.9 °F 22.2 °F 18.0 °F 59% 29.99 in 10.0 mi SSW 10.4 mph - N/A   Overcast
7:53 AM 30.0 °F 22.4 °F 23.0 °F 75% 30.00 in 5.0 mi South 8.1 mph - 0.00 in Snow Light Snow
8:53 AM 30.9 °F 22.8 °F 24.1 °F 76% 30.00 in 10.0 mi South 9.2 mph - 0.00 in   Overcast
9:53 AM 32.0 °F 25.6 °F 25.0 °F 75% 29.99 in 10.0 mi South 6.9 mph - N/A   Overcast
10:53 AM 33.1 °F 26.1 °F 26.1 °F 75% 29.97 in 2.0 mi South 8.1 mph - 0.00 in Snow Light Snow
11:18 AM 33.8 °F 28.6 °F 26.6 °F 75% 29.94 in 5.0 mi South 5.8 mph - 0.00 in Snow Light Snow
11:31 AM 33.8 °F 26.4 °F 26.6 °F 75% 29.94 in 9.0 mi South 9.2 mph - 0.00 in   Overcast
11:49 AM 33.8 °F 27.0 °F 26.6 °F 75% 29.94 in 2.5 mi SSW 8.1 mph - 0.00 in Snow Light Snow
11:53 AM 34.0 °F 27.2 °F 28.0 °F 79% 29.96 in 2.5 mi South 8.1 mph - 0.00 in Snow Light Snow
12:17 PM 33.8 °F 30.8 °F 28.4 °F 81% 29.92 in 1.5 mi SSW 3.5 mph - 0.00 in Snow Light Snow
12:45 PM 33.8 °F 28.6 °F 28.4 °F 81% 29.91 in 2.0 mi SSW 5.8 mph - 0.00 in Snow Light Snow
12:53 PM 34.0 °F 29.8 °F 28.9 °F 82% 29.94 in 2.5 mi South 4.6 mph - 0.00 in Snow Light Snow
1:01 PM 35.6 °F 31.7 °F 28.4 °F 75% 29.90 in 4.0 mi Variable 4.6 mph - 0.00 in Snow Light Snow
1:53 PM 36.0 °F 29.6 °F 28.0 °F 73% 29.91 in 10.0 mi SSW 8.1 mph - 0.00 in   Overcast
2:53 PM 37.9 °F - 28.0 °F 68% 29.90 in 10.0 mi Calm Calm - N/A   Overcast
3:53 PM 35.1 °F - 28.9 °F 78% 29.92 in 10.0 mi Calm Calm - N/A   Overcast
4:53 PM 35.1 °F - 30.0 °F 82% 29.93 in 10.0 mi Calm Calm - N/A   Overcast
5:12 PM 35.6 °F - 30.2 °F 81% 29.91 in 9.0 mi Calm Calm - 0.00 in Snow Light Snow
5:51 PM 33.8 °F - 30.2 °F 87% 29.92 in 8.0 mi Calm Calm - 0.00 in Snow Light Snow
5:53 PM 34.0 °F - 30.0 °F 85% 29.94 in 8.0 mi Calm Calm - 0.00 in Snow Light Snow
6:10 PM 33.8 °F - 30.2 °F 87% 29.93 in 6.0 mi Calm Calm - 0.00 in Snow Light Snow
7:53 PM 33.1 °F - 30.9 °F 92% 29.98 in 6.0 mi Calm Calm - 0.00 in   Overcast
8:53 PM 33.1 °F - 30.9 °F 92% 29.99 in 4.0 mi Calm Calm - N/A   Overcast
9:18 PM 33.8 °F - 30.2 °F 87% 29.97 in 5.0 mi Calm Calm - N/A   Overcast
9:28 PM 33.8 °F - 30.2 °F 87% 29.97 in 5.0 mi Calm Calm - N/A   Overcast
9:53 PM 33.1 °F - 32.0 °F 96% 30.00 in 4.0 mi Calm Calm - N/A   Overcast
10:43 PM 33.8 °F - 30.2 °F 87% 29.98 in 2.5 mi Calm Calm - 0.00 in   Overcast
10:53 PM 33.1 °F - 30.9 °F 92% 30.01 in 2.5 mi Calm Calm - 0.00 in Snow Light Snow
11:03 PM 33.8 °F - 30.2 °F 87% 29.99 in 3.0 mi Calm Calm - 0.00 in   Overcast
11:37 PM 33.8 °F - 30.2 °F 87% 30.00 in 2.5 mi Calm Calm - 0.00 in   Overcast
11:53 PM 33.1 °F - 30.9 °F 92% 30.02 in 2.5 mi Calm Calm - 0.00 in   Overcast